Andalusia, AL

12:57 PM CST on March 01, 2017 (GMT -0600)
Andalusia

Weather History for K79J - February, 2014

Change the Weather History Date:

Tuesday, February 25, 2014

  Actual Average (KCEW) Record (KCEW)
Temperature  
Mean Temperature 64 °F -  
Max Temperature 78 °F 69 °F 81 °F (1977)
Min Temperature 50 °F 44 °F 28 °F (1999)
Degree Days  
Heating Degree Days 1    
Growing Degree Days 14 (Base 50)    
Moisture  
Dew Point 49 °F    
Average Humidity 63    
Maximum Humidity 83    
Minimum Humidity 36    
Precipitation  
Precipitation 0.00 in - - ()
Sea Level Pressure  
Sea Level Pressure 30.01 in    
Wind  
Wind Speed 2 mph (NW)    
Max Wind Speed 9 mph    
Max Gust Speed -    
Visibility 10 miles    
Events      
Averages and records for this station are not official NWS values.
T = Trace of Precipitation, MM = Missing Value Source: NWS Daily Summary

Daily Weather History Graph

Daily Weather History Graph

Search for Another Location

Airport or City:

Trip Planner

Search our weather history database for the weather conditions in past years. The results will help you decide how hot, cold, wet, or windy it might be!

Date:

Astronomy

Feb. 25, 2014 Rise Set
Actual Time 6:16 AM CST 5:40 PM CST
Civil Twilight 5:52 AM CST 6:05 PM CST
Nautical Twilight 5:24 AM CST 6:33 PM CST
Astronomical Twilight 4:56 AM CST 7:01 PM CST
Moon 3:00 AM CST (2/25) 1:55 PM CST (2/25)
Length of Visible Light 12h 12m
Length of Day
11h 24m
Waning Crescent, 18% of the Moon is Illuminated
Feb 25
Waning Crescent
Mar 1
New
Mar 8
First Quarter
Mar 16
Full
Mar 23
Last Quarter

Hourly Weather History & Observations

Time (CST) Temp. Dew Point Humidity Pressure Visibility Wind Dir Wind Speed Gust Speed Precip Events Conditions
12:56 AM 52.0 °F 45.0 °F 77% 30.04 in 10.0 mi Calm Calm - N/A   Clear
1:56 AM 51.1 °F 44.1 °F 77% 30.05 in 10.0 mi NW 3.5 mph - N/A   Clear
2:56 AM 50.0 °F 44.1 °F 80% 30.06 in 10.0 mi Calm Calm - N/A   Clear
3:56 AM 50.0 °F 45.0 °F 83% 30.05 in 10.0 mi Calm Calm - N/A   Clear
4:56 AM 51.1 °F 45.0 °F 80% 30.05 in 10.0 mi Calm Calm - N/A   Scattered Clouds
5:56 AM 51.1 °F 46.0 °F 83% 30.06 in 10.0 mi Calm Calm - N/A   Clear
6:56 AM 52.0 °F 46.9 °F 83% 30.06 in 10.0 mi Calm Calm - N/A   Scattered Clouds
7:56 AM 57.9 °F 46.0 °F 65% 30.07 in 10.0 mi Calm Calm - N/A   Clear
8:56 AM 64.9 °F 46.0 °F 50% 30.08 in 10.0 mi Variable 3.5 mph - N/A   Clear
9:56 AM 72.0 °F 48.0 °F 43% 30.09 in 10.0 mi WNW 5.8 mph - N/A   Mostly Cloudy
10:56 AM 75.0 °F 48.9 °F 40% 30.07 in 10.0 mi NNW 4.6 mph - N/A   Scattered Clouds
11:56 AM 75.0 °F 48.9 °F 40% 30.04 in 10.0 mi Calm Calm - N/A   Overcast
12:56 PM 78.1 °F 48.9 °F 36% 30.01 in 10.0 mi WNW 8.1 mph - N/A   Overcast
1:56 PM 75.0 °F 50.0 °F 41% 29.99 in 10.0 mi NW 9.2 mph - N/A   Overcast
2:56 PM 75.0 °F 51.1 °F 43% 29.96 in 10.0 mi Calm Calm - N/A   Scattered Clouds
3:56 PM 75.0 °F 51.1 °F 43% 29.96 in 10.0 mi NNW 4.6 mph - N/A   Clear
4:56 PM 73.0 °F 53.1 °F 49% 29.97 in 10.0 mi NNW 3.5 mph - N/A   Overcast
5:56 PM 69.1 °F 54.0 °F 58% 29.96 in 10.0 mi Calm Calm - N/A   Clear
6:56 PM 64.9 °F 55.9 °F 73% 29.96 in 10.0 mi Calm Calm - N/A   Clear
7:56 PM 62.1 °F 55.0 °F 78% 29.97 in 10.0 mi NNW 3.5 mph - N/A   Clear
8:56 PM 62.1 °F 53.1 °F 72% 29.96 in 10.0 mi SSE 3.5 mph - N/A   Clear
9:56 PM 62.1 °F 53.1 °F 72% 29.96 in 10.0 mi Calm Calm - N/A   Overcast
10:56 PM 60.1 °F 52.0 °F 75% 29.95 in 10.0 mi Calm Calm - N/A   Partly Cloudy
11:56 PM 60.1 °F 51.1 °F 72% 29.91 in 10.0 mi ESE 3.5 mph - N/A   Mostly Cloudy